This demonstration page uses our WeatherBlox Daily Observations layout. Learn more.

Left ArrowRight Arrow

41.86663, -103.66717

Hourly Observations for February 3, 2016

Temp ( °F °C ) Dew Point ( °F °C ) Humidity (%) Winds ( mph kmh ) Pressure ( in mb ) Visibility ( mi km ) Precip ( " mm )
12:03 am 00:03 Mostly Cloudy 16 -9 12 -11 86 86 W 9 15 30.27 1025 10 16 N/A
12:53 am 00:53 Cloudy 17 -8.3 12 -11.1 80 80 WNW 9 15 30.11 1020 8 13 N/A
1:53 am 01:53 Cloudy with Mist and Fog 14 -10 11 -11.7 88 88 WNW 7 11 30.14 1021 6 10 N/A
2:31 am 02:31 Cloudy with Light Snow 15 -9.4 12 -11.1 88 88 NW 5 7 30.27 1025 2 3 N/A
2:53 am 02:53 Cloudy with Light Snow 16 -8.9 13 -10.6 88 88 NW 6 9 30.15 1021 3 4 N/A
3:19 am 03:19 Cloudy with Light Snow 17 -8.3 14 -10 88 88 WNW 9 15 30.27 1025 6 10 N/A
3:53 am 03:53 Cloudy 18 -7.8 14 -10 84 84 WNW 12 19 30.15 1021 10 16 N/A
4:53 am 04:53 Mostly Cloudy 16 -8.9 11 -11.7 80 80 WNW 10 17 30.17 1022 10 16 N/A
5:53 am 05:53 Cloudy 15 -9.4 10 -12.2 80 80 WNW 8 13 30.19 1023 10 16 N/A
6:53 am 06:53 Cloudy 13 -10.6 8 -13.3 81 81 NW 7 11 30.23 1024 10 16 N/A
7:53 am 07:53 Partly Cloudy 10 -12.2 4 -15.6 76 76 NNW 7 11 30.27 1025 10 16 N/A
8:53 am 08:53 Sunny 14 -10 5 -15 67 67 NW 8 13 30.27 1025 10 16 N/A
9:53 am 09:53 Mostly Sunny 17 -8.3 6 -14.4 62 62 WNW 15 24 30.27 1025 10 16 N/A
10:53 am 10:53 Partly Cloudy 19 -7.2 8 -13.3 62 62 WNW 15 24 30.29 1026 10 16 N/A
11:53 am 11:53 Sunny 22 -5.6 11 -11.7 63 63 WNW 14 22 30.27 1025 10 16 N/A
12:53 pm 12:53 Sunny 25 -3.9 12 -11.1 58 58 W 17 28 30.26 1025 10 16 N/A
1:53 pm 13:53 Sunny 25 -3.9 12 -11.1 58 58 WNW 17 28 30.26 1025 10 16 N/A
2:53 pm 14:53 Sunny 25 -3.9 12 -11.1 58 58 W 15 24 30.26 1025 10 16 N/A
3:53 pm 15:53 Sunny 24 -4.4 11 -11.7 57 57 W 13 20 30.27 1025 10 16 N/A
4:53 pm 16:53 Sunny 21 -6.1 9 -12.8 59 59 W 14 22 30.29 1026 10 16 N/A
5:53 pm 17:53 Clear 18 -7.8 7 -13.9 62 62 WNW 9 15 30.32 1027 10 16 N/A
6:53 pm 18:53 Clear 12 -11.1 4 -15.6 70 70 WNW 6 9 30.34 1028 10 16 N/A
7:53 pm 19:53 Clear 8 -13.3 3 -16.1 80 80 NW 6 9 30.37 1028 10 16 N/A
8:53 pm 20:53 Clear 8 -13.3 1 -17.2 73 73 NNW 6 9 30.34 1028 10 16 N/A
9:53 pm 21:53 Clear 4 -15.6 -2 -18.9 76 76 N 7 11 30.33 1027 10 16 N/A
10:53 pm 22:53 Clear 8 -13.3 1 -17.2 73 73 NW 7 11 30.32 1027 10 16 N/A
11:53 pm 23:53 Clear 8 -13.3 2 -16.7 76 76 NNW 6 9 30.32 1027 10 16 N/A

Powered by AerisWeather